This is the latest recevied weather packets stored in our database for station/object DH8TOM-4. If no packets are shown the sender has not sent any weather packets the latest 10 day(s).
| Time | Temp. | Humidity | Pressure | Rain* | Wind** | Luminosity | Snow |
|---|---|---|---|---|---|---|---|
| 1778016618 | 11.67° C | 100% | 1005.2 hPa | - | - | - | - |
| 1778016317 | 11.67° C | 100% | 1005.2 hPa | - | - | - | - |
| 1778016015 | 12.22° C | 99% | 1005.4 hPa | - | - | - | - |
| 1778015414 | 12.78° C | 90% | 1005.6 hPa | - | - | - | - |
| 1778014812 | 12.78° C | 82% | 1005.7 hPa | - | - | - | - |
| 1778014210 | 13.33° C | 81% | 1005.7 hPa | - | - | - | - |
| 1778013607 | 13.33° C | 80% | 1005.6 hPa | - | - | - | - |
| 1778013005 | 14.44° C | 78% | 1005.7 hPa | - | - | - | - |
| 1778012403 | 15.56° C | 79% | 1005.7 hPa | - | - | - | - |
| 1778011802 | 15.56° C | 80% | 1005.4 hPa | - | - | - | - |
| 1778011500 | 15.56° C | 80% | 1005.3 hPa | - | - | - | - |
| 1778011200 | 15.56° C | 80% | 1005.3 hPa | - | - | - | - |
| 1778010899 | 15.56° C | 79% | 1004.8 hPa | - | - | - | - |
| 1778010598 | 15.56° C | 79% | 1004.8 hPa | - | - | - | - |
| 1778010297 | 15.56° C | 79% | 1004.8 hPa | - | - | - | - |
| 1778009996 | 15.56° C | 79% | 1004.3 hPa | - | - | - | - |
| 1778009694 | 16.11° C | 79% | 1004 hPa | - | - | - | - |
| 1778009394 | 16.11° C | 79% | 1004 hPa | - | - | - | - |
| 1778009093 | 16.11° C | 79% | 1004 hPa | - | - | - | - |
| 1778008791 | 16.11° C | 79% | 1003.9 hPa | - | - | - | - |
| 1778008491 | 16.11° C | 79% | 1003.9 hPa | - | - | - | - |
| 1778008190 | 16.11° C | 78% | 1004 hPa | - | - | - | - |
| 1778007888 | 16.67° C | 78% | 1004 hPa | - | - | - | - |
| 1778007588 | 16.67° C | 78% | 1004 hPa | - | - | - | - |
| 1778007287 | 16.67° C | 78% | 1004 hPa | - | - | - | - |
* Rain since midnight (hover to see other rain measurements)
** Current wind speed in m/s (hover to see current wind gust speed)